Location: Caracas
(10.5033°N, 66.8422°W)
Time: 01:08:28
(UTC-04:00)

Vanguard 1 Rocket - Visible Passes

Search period start: 19 November 2017 00:00
Search period end: 29 November 2017 00:00
Orbit: 655 x 4222 km, 34.3° (Epoch: 18 November)

Date Brightness Start Highest point End Pass type
(mag) Time Alt. Az. Time Alt. Az. Time Alt. Az.
19 Nov 10.6 02:58:37 33° N 02:58:37 33° N 03:10:48 10° ENE visible
19 Nov 9.6 05:15:55 13° NW 05:30:55 50° NNE 05:39:28 10° E visible
19 Nov 10.2 20:10:09 10° SW 20:27:20 80° SE 20:36:04 53° ENE visible
19 Nov 10.9 22:39:41 10° W 22:53:22 43° WNW 22:53:22 43° WNW visible
20 Nov 11.0 01:51:29 24° NE 01:51:29 24° NE 01:57:37 10° NE visible
20 Nov 10.1 04:08:47 29° NNW 04:17:06 41° NNE 04:27:45 10° E visible
20 Nov 10.2 18:59:16 10° SSW 19:13:30 57° SE 19:29:07 25° ENE visible
20 Nov 10.4 21:25:44 10° WSW 21:45:35 68° NNW 21:46:26 68° NNW visible
21 Nov 11.6 00:00:02 10° WNW 00:44:24 - NE 00:03:44 17° WNW visible
21 Nov 10.5 03:01:41 36° N 03:01:55 36° N 03:15:13 10° ENE visible
21 Nov 9.3 05:18:59 14° NW 05:34:37 64° NNE 05:43:19 10° ESE visible
21 Nov 10.4 17:49:33 10° SSW 18:00:46 35° SE 18:19:20 10° ENE visible
21 Nov 10.1 20:13:20 10° SW 20:30:11 87° NW 20:39:29 52° NE visible
21 Nov 11.0 22:43:51 10° W 22:56:47 38° WNW 22:56:47 38° WNW visible
22 Nov 11.0 01:54:37 26° NE 01:54:37 26° NE 02:01:53 10° ENE visible
22 Nov 10.0 04:11:55 31° NNW 04:21:07 49° NNE 04:31:55 10° E visible
22 Nov 10.0 19:02:09 10° SW 19:16:07 69° SE 19:32:31 26° ENE visible
22 Nov 10.5 21:29:30 10° WSW 21:48:58 59° NNW 21:49:50 59° NNW visible
23 Nov 11.5 00:04:38 10° WNW 00:47:33 11° NE 00:47:50 10° NE visible
23 Nov 10.4 03:04:52 41° N 03:06:12 41° NNE 03:19:36 10° E visible
23 Nov 9.2 05:22:10 15° NW 05:38:05 81° NNE 05:46:58 10° ESE visible
23 Nov 10.2 17:52:03 10° SSW 18:03:21 45° SE 18:23:21 10° ENE visible
23 Nov 10.2 20:16:44 10° WSW 20:33:14 75° NNW 20:42:50 48° NE visible
23 Nov 11.1 22:48:14 10° W 23:00:09 34° NW 23:00:09 34° NW visible
24 Nov 10.9 01:57:50 30° NE 01:57:50 30° NE 02:06:18 10° ENE visible
24 Nov 9.8 04:15:09 34° NW 04:24:54 59° NNE 04:35:54 10° ESE visible
24 Nov 9.9 19:05:14 10° SW 19:18:54 83° SE 19:35:51 25° ENE visible
24 Nov 10.6 21:33:31 10° W 21:52:39 51° NNW 21:53:09 51° NNW visible
25 Nov 11.5 00:09:09 10° WNW 00:50:50 13° ENE 00:52:02 10° ENE visible
25 Nov 10.3 03:08:09 46° N 03:10:17 47° NNE 03:23:52 10° E visible
25 Nov 9.2 05:25:27 15° WNW 05:41:17 81° SW 05:50:21 10° SE visible
25 Nov 9.9 17:54:49 10° SSW 18:05:58 56° SE 18:26:54 10° ENE visible
25 Nov 10.3 20:20:22 10° WSW 20:36:34 64° NNW 20:46:07 45° NNE visible
25 Nov 11.2 22:52:43 10° WNW 23:03:25 30° NW 23:03:25 30° NW visible
26 Nov 10.8 02:01:09 34° NE 02:01:09 34° NE 02:10:43 10° ENE visible
26 Nov 9.6 04:18:28 36° NW 04:28:27 72° NNE 04:39:38 10° ESE visible
26 Nov 9.9 19:08:33 10° WSW 19:21:55 83° NW 19:39:04 25° NE visible
26 Nov 10.7 21:37:44 10° W 21:56:22 46° NNW 21:56:22 46° NNW visible
27 Nov 11.4 00:13:28 10° WNW 00:54:11 15° ENE 00:56:25 10° ENE visible
27 Nov 10.1 03:11:30 53° N 03:14:09 55° NNE 03:27:55 10° E visible
27 Nov 9.3 05:28:49 16° WNW 05:44:14 64° SW 05:53:32 10° SE visible
27 Nov 9.7 17:57:47 10° SW 18:08:43 70° SE 18:30:06 10° ENE visible
27 Nov 10.4 20:24:15 10° W 20:40:11 55° NNW 20:49:16 41° NNE visible
27 Nov 11.3 22:57:13 10° WNW 23:06:34 27° NW 23:06:34 27° NW visible
28 Nov 10.6 02:04:32 39° NE 02:04:32 39° NE 02:15:04 10° E visible
28 Nov 9.5 04:21:51 39° NW 04:31:43 87° NE 04:43:08 10° SE visible
28 Nov 10.0 19:12:04 10° WSW 19:25:11 70° NNW 19:42:08 24° NE visible
28 Nov 10.8 21:42:07 10° WNW 21:59:26 41° NNW 21:59:26 41° NNW visible
